Volver al catálogo

STARLINK-33680

ActivoComunicacionesVLEO
NORAD 63287·PAYLOAD·🇺🇸 United States

Lanzado Mar 15, 2025 desde Cape Canaveral Space Force Station

Loading…

Próximos Pases (próximas 24 horas)

TLE

ActualizadoSource: CelesTrak SupGP

Época: Sep 15, 2026, 03:19 UTC

1 63287C 25053Y   26258.13868056 -.00019787  00000+0 -71684-3 0  2581
2 63287  43.0003 251.5468 0001208 265.5365 356.2333 15.27580839    16

Sigue STARLINK-33680 en tiempo real con AllMySat

Download on the App Store